TimeEAT,TemperatureF,Dew PointF,Humidity,Sea Level PressureIn,VisibilityMPH,Wind Direction,Wind SpeedMPH,Gust SpeedMPH,PrecipitationIn,Events,Conditions,WindDirDegrees,DateUTC
12:00 AM,59.0,48.2,67,30.30,6.2,ENE,13.8,-,N/A,,Mostly Cloudy,70,2013-02-26 21:00:00
1:00 AM,59.0,48.2,67,30.27,6.2,ENE,15.0,-,N/A,,Mostly Cloudy,70,2013-02-26 22:00:00
2:00 AM,59.0,46.4,63,30.27,-9999.0,ENE,15.0,-,N/A,,Clear,70,2013-02-26 23:00:00
3:00 AM,59.0,46.4,63,30.27,-9999.0,ENE,19.6,-,N/A,,Clear,70,2013-02-27 00:00:00
4:00 AM,59.0,46.4,63,30.24,-9999.0,NE,16.1,-,N/A,,Clear,50,2013-02-27 01:00:00
5:00 AM,57.2,44.6,63,30.27,-9999.0,ENE,18.4,-,N/A,,Clear,60,2013-02-27 02:00:00
6:00 AM,50.0,44.6,82,30.30,-9999.0,NE,4.6,-,N/A,,Clear,50,2013-02-27 03:00:00
7:00 AM,48.2,42.8,82,30.33,6.2,East,4.6,-,N/A,,Mostly Cloudy,80,2013-02-27 04:00:00
8:00 AM,53.6,46.4,77,30.33,6.2,East,4.6,-,N/A,,Mostly Cloudy,90,2013-02-27 05:00:00
9:00 AM,62.6,46.4,55,30.36,6.2,NE,3.5,-,N/A,,Mostly Cloudy,50,2013-02-27 06:00:00
10:00 AM,68.0,46.4,46,-9999,6.2,East,11.5,-,N/A,,Mostly Cloudy,90,2013-02-27 07:00:00
11:00 AM,73.4,48.2,41,30.36,6.2,East,13.8,-,N/A,,Mostly Cloudy,80,2013-02-27 08:00:00
12:00 PM,73.4,48.2,41,30.33,6.2,ENE,18.4,-,N/A,,Mostly Cloudy,60,2013-02-27 09:00:00
1:00 PM,77.0,53.6,44,30.30,6.2,ENE,19.6,-,N/A,,Mostly Cloudy,70,2013-02-27 10:00:00
2:00 PM,75.2,41.0,29,-9999,6.2,NE,12.7,-,N/A,,Scattered Clouds,50,2013-02-27 11:00:00
3:00 PM,78.8,60.8,54,30.24,6.2,East,9.2,-,N/A,,Mostly Cloudy,90,2013-02-27 12:00:00
4:00 PM,77.0,62.6,61,30.21,6.2,North,11.5,-,N/A,,Mostly Cloudy,0,2013-02-27 13:00:00
5:00 PM,77.0,62.6,61,30.21,6.2,NNE,5.8,-,N/A,,Mostly Cloudy,30,2013-02-27 14:00:00
6:00 PM,75.2,62.6,65,30.21,6.2,NNE,6.9,-,N/A,,Mostly Cloudy,30,2013-02-27 15:00:00
7:00 PM,69.8,44.6,40,-9999,6.2,Calm,Calm,-,N/A,,Mostly Cloudy,0,2013-02-27 16:00:00
8:00 PM,62.6,44.6,52,-9999,6.2,Calm,Calm,-,N/A,,Mostly Cloudy,0,2013-02-27 17:00:00
9:00 PM,57.2,48.2,72,30.27,-9999.0,ENE,9.2,-,N/A,,Clear,70,2013-02-27 18:00:00
10:00 PM,60.8,59.0,94,-9999,-9999.0,NNE,3.5,-,N/A,,Clear,20,2013-02-27 19:00:00
11:00 PM,57.2,41.0,55,-9999,-9999.0,Calm,Calm,-,N/A,,Clear,0,2013-02-27 20:00:00